Snowfall_Accumulation
0.0 0.0 0.0 0.0 0.0 0.0 0.0 0.0 0.0 nan nan nan nan nan nan nan nan nan nan nan nan nan nan nan nan nan nan
0.0 0.0 0.0 0.0 0.0 0.0 0.0 0.0 0.0 nan nan nan nan nan nan nan nan nan nan nan nan nan nan nan nan nan nan
0.0 0.0 0.0 0.0 0.0 0.0 0.0 0.0 0.0 nan nan nan nan nan nan nan nan nan nan nan nan nan nan nan nan nan nan
0.0 0.0 0.0 0.0 0.0 0.0 0.0 0.0 0.0 0.0 nan nan nan nan nan nan nan nan nan nan nan nan nan nan nan nan nan
0.0 0.0 0.0 0.1 0.0 0.0 0.0 0.0 0.0 0.0 0.0 0.0 0.0 0.0 0.0 nan nan nan nan nan nan nan nan nan nan nan nan
0.0 0.0 0.0 0.0 0.0 0.0 0.1 0.2 0.7 0.0 0.0 0.1 0.0 0.0 0.0 0.0 nan nan nan nan nan nan nan nan nan nan nan
0.0 0.0 0.0 0.0 0.0 0.0 0.1 0.2 0.5 0.5 0.2 2.1 0.2 0.1 0.0 0.0 nan nan nan nan nan nan nan nan nan nan nan
0.0 0.0 0.0 0.0 0.0 0.0 0.0 0.3 0.4 0.4 0.0 2.9 1.4 1.0 0.0 0.0 nan nan nan nan nan nan nan nan nan nan nan
nan nan nan nan nan 0.0 0.3 0.7 2.4 1.4 0.8 0.7 2.2 2.3 1.4 0.0 0.0 nan nan nan nan nan nan nan nan nan 0.0
0.2 0.1 nan nan nan 0.0 0.1 1.0 1.8 2.9 1.4 3.4 2.4 1.9 4.5 1.8 0.6 0.2 0.0 nan nan nan nan nan nan 0.0 0.0
1.6 1.2 0.8 0.7 0.6 0.2 0.0 0.3 2.3 2.4 0.4 1.1 2.9 2.0 1.6 1.8 1.1 1.1 0.1 0.0 0.0 0.0 nan nan nan 0.0 0.0
0.6 0.7 1.0 1.3 1.3 1.3 1.2 1.1 0.9 0.4 0.4 0.3 8.7 1.8 3.7 5.4 2.4 1.2 0.6 0.0 0.0 0.1 0.0 nan nan nan nan
0.5 0.7 0.8 0.9 0.9 1.1 1.2 1.4 1.4 1.2 1.2 0.9 1.9 1.0 2.7 5.2 4.4 2.0 1.4 0.4 0.1 0.3 0.3 0.3 0.2 0.1 0.2
0.5 0.3 0.3 1.2 1.4 1.1 2.2 1.7 3.6 2.6 1.8 1.3 1.0 1.0 7.7 2.6 3.3 4.1 1.0 5.2 0.3 0.3 0.4 0.3 0.2 0.2 0.3
0.8 0.8 0.7 1.0 1.4 0.9 2.1 3.1 6.6 4.7 4.6 3.4 2.7 1.9 2.6 3.3 9.1 1.8 1.3 1.1 0.5 0.9 1.2 0.8 0.3 0.2 0.3
1.6 2.0 3.2 4.1 3.7 4.2 4.1 4.8 7.1 4.8 5.4 5.1 5.8 10.0 5.3 4.2 2.0 2.8 1.7 1.6 0.9 0.6 0.7 3.1 1.0 0.2 0.0
3.7 5.4 6.6 7.2 6.0 6.3 5.0 5.0 6.6 5.2 5.8 7.0 13.7 14.8 17.7 11.4 1.7 nan 5.6 2.5 2.1 2.3 0.7 1.2 2.3 0.8 0.1
Water_Equivalent
0.00 0.00 0.00 0.00 0.00 0.00 0.00 0.00 0.00 nan nan nan nan nan nan nan nan nan nan nan nan nan nan nan nan nan nan
0.00 0.00 0.00 0.00 0.00 0.00 0.00 0.00 0.00 nan nan nan nan nan nan nan nan nan nan nan nan nan nan nan nan nan nan
0.00 0.00 0.00 0.00 0.00 0.00 0.00 0.00 0.00 nan nan nan nan nan nan nan nan nan nan nan nan nan nan nan nan nan nan
0.00 0.00 0.00 0.00 0.00 0.00 0.00 0.00 0.00 0.00 nan nan nan nan nan nan nan nan nan nan nan nan nan nan nan nan nan
0.00 0.00 0.00 0.02 0.00 0.00 0.00 0.00 0.02 0.00 0.00 0.00 0.00 0.00 0.00 nan nan nan nan nan nan nan nan nan nan nan nan
0.00 0.00 0.00 0.00 0.00 0.00 0.04 0.09 0.27 0.01 0.01 0.03 0.00 0.00 0.00 0.00 nan nan nan nan nan nan nan nan nan nan nan
0.00 0.00 0.00 0.00 0.00 0.02 0.02 0.10 0.19 0.19 0.07 0.67 0.06 0.05 0.00 0.00 nan nan nan nan nan nan nan nan nan nan nan
0.00 0.00 0.00 0.00 0.00 0.00 0.00 0.09 0.15 0.16 0.02 0.64 0.41 0.28 0.00 0.00 nan nan nan nan nan nan nan nan nan nan nan
nan nan nan nan nan 0.00 0.12 0.25 0.54 0.33 0.24 0.16 0.49 0.54 0.40 0.00 0.00 nan nan nan nan nan nan nan nan nan 0.00
0.05 0.03 nan nan nan 0.00 0.03 0.35 0.42 0.58 0.29 0.67 0.46 0.36 0.77 0.35 0.11 0.03 0.00 nan nan nan nan nan nan 0.00 0.00
0.29 0.21 0.15 0.13 0.12 0.04 0.00 0.10 0.62 0.58 0.08 0.29 0.68 0.41 0.41 0.36 0.18 0.18 0.02 0.01 0.00 0.00 nan nan nan 0.00 0.00
0.10 0.11 0.18 0.23 0.24 0.25 0.23 0.25 0.22 0.11 0.08 0.06 2.36 0.48 0.94 1.02 0.43 0.17 0.09 0.01 0.02 0.04 0.01 nan nan nan nan
0.09 0.16 0.19 0.18 0.15 0.18 0.16 0.19 0.20 0.17 0.20 0.17 0.56 0.22 0.69 1.10 0.78 0.38 0.25 0.10 0.06 0.11 0.10 0.10 0.08 0.05 0.07
0.11 0.05 0.05 0.34 0.34 0.26 0.49 0.37 0.78 0.53 0.24 0.21 0.19 0.20 1.67 0.58 0.72 0.76 0.21 1.02 0.10 0.10 0.14 0.11 0.07 0.08 0.10
0.18 0.19 0.16 0.27 0.32 0.25 0.49 0.72 1.28 0.90 0.82 0.69 0.45 0.31 0.51 0.67 1.55 0.38 0.28 0.26 0.17 0.27 0.32 0.24 0.09 0.07 0.10
0.43 0.50 0.68 0.86 0.75 0.92 0.94 0.98 1.27 0.86 0.97 0.98 1.14 1.70 1.21 1.00 0.47 0.58 0.40 0.42 0.26 0.20 0.21 0.69 0.27 0.07 0.00
0.97 1.27 1.43 1.49 1.23 1.18 0.95 0.97 1.22 0.94 1.06 1.33 2.13 2.45 2.50 1.51 0.39 nan 1.18 0.65 0.56 0.50 0.20 0.32 0.59 0.26 0.02
SL_Ratio
nan nan nan nan nan nan nan nan nan nan nan nan nan nan nan nan nan nan nan nan nan nan nan nan nan nan nan
nan nan nan nan nan nan nan nan nan nan nan nan nan nan nan nan nan nan nan nan nan nan nan nan nan nan nan
nan nan nan nan nan nan nan nan nan nan nan nan nan nan nan nan nan nan nan nan nan nan nan nan nan nan nan
nan nan nan nan nan nan nan nan nan nan nan nan nan nan nan nan nan nan nan nan nan nan nan nan nan nan nan
nan nan 2.5 2.4 nan nan nan nan 2.5 nan nan nan nan nan nan nan nan nan nan nan nan nan nan nan nan nan nan
nan nan nan nan nan nan 2.5 2.5 2.5 2.5 2.2 2.6 nan nan nan nan nan nan nan nan nan nan nan nan nan nan nan
nan nan nan nan nan 2.5 2.6 2.5 2.7 2.7 2.5 3.1 2.5 2.8 nan nan nan nan nan nan nan nan nan nan nan nan nan
nan nan nan nan nan nan 2.1 3.1 2.8 2.8 2.7 4.5 3.4 3.4 nan nan nan nan nan nan nan nan nan nan nan nan nan
nan nan nan nan nan nan 2.5 2.7 4.4 4.2 3.3 4.3 4.5 4.3 3.6 nan nan nan nan nan nan nan nan nan nan nan nan
4.1 4.2 nan nan nan nan 2.4 2.9 4.3 5.0 4.8 5.1 5.2 5.3 5.9 5.1 5.3 5.4 nan nan nan nan nan nan nan nan nan
5.4 5.6 5.7 5.5 5.2 4.2 3.0 2.5 3.6 4.2 5.0 3.7 4.3 4.9 3.9 4.9 6.1 5.9 5.7 6.4 nan nan nan nan nan nan nan
5.9 6.2 5.5 5.4 5.5 5.2 5.1 4.2 3.8 3.8 4.7 5.1 3.7 3.9 4.0 5.3 5.5 6.8 6.7 4.4 2.5 2.6 2.5 nan nan nan nan
5.8 4.6 4.5 5.1 5.9 5.8 7.4 7.3 7.0 6.9 5.7 5.6 3.4 4.7 4.0 4.7 5.6 5.3 5.4 4.3 2.6 2.7 2.8 2.7 2.6 2.5 2.5
4.6 6.6 6.4 3.6 4.1 4.3 4.4 4.7 4.6 4.9 7.4 6.2 5.4 4.9 4.6 4.4 4.6 5.4 4.5 5.1 2.9 2.9 3.0 2.9 2.8 2.9 2.7
4.1 4.3 4.4 3.9 4.2 3.5 4.2 4.3 5.2 5.3 5.6 4.9 6.0 6.2 5.2 4.9 5.9 4.7 4.8 4.2 3.1 3.3 3.8 3.4 2.9 2.8 3.0
3.8 4.0 4.7 4.8 4.9 4.6 4.3 4.9 5.6 5.6 5.5 5.2 5.1 5.9 4.4 4.2 4.3 4.8 4.2 3.9 3.3 3.2 3.2 4.5 3.5 2.8 3.6
3.9 4.3 4.6 4.8 4.9 5.3 5.3 5.2 5.4 5.5 5.5 5.3 6.4 6.0 7.1 7.5 4.5 nan 4.7 3.8 3.8 4.6 3.3 3.8 3.9 3.0 2.6